THOR ABLESTAR DEB, 403

Orbit data source: Space-Track

THOR ABLESTAR DEB, 403 is space debris in LEO originally from a launch on Thu, 29 Jun 1961 UTC launched from the Air Force Eastern Test Range (AFETR). Debris objects in space refer to the collection of defunct objects orbiting the Earth. Examples of debris include non-operational satellites, rocket bodies, and fragments generated from explosions, collisions, or faulty payload assembly.

Loading next visibility...
Identifier
403, 1961-015EC
Orbit
LEO
Country
Flag of USUS
Related business
Manufacturer
Unknown
Mission
Spacecraft
Bus & Motor
Unknown
Mass
Unknown
Launch date (UTC)
1961-06-29 (64 years ago)
Launch vehicle
Unknown
Launch site
Air Force Eastern Test Range (AFETR)
Object type
Payload
Rocket body
Debris
Shape & HBR
Unknown shape, 0.2 m
Radar Cross Section
Small (<0.1 m²)

Expand to show TLE details & history
Last TLE update: 8 hours ago

TLE from 8 hours ago
0 THOR ABLESTAR DEB
1   403U 61015EC  25355.07261449  .00000002  00000-0  71827-4 0  9994
2   403  66.8421 353.4079 0027176 294.3448 141.3268 13.81199873246551
Epoch: 2025-12-21T01:44Z
TLE epoch observation values (Epoch: 2025-12-21T01:44:33.891Z)
Latitude
63.18557°
Longitude
-65.28854°
Altitude
985.253 km
Speed
7.358 km/s
True Right ascension
03h 22m 58s
True Declination
63° 03' 04"
Sunlit
Object was in full shadow at epoch
Visualization orbit readout
Latitude
Unknown
Longitude
Unknown
Altitude
Unknown
Speed
Unknown
Apparent Right ascension
Unknown
Apparent Declination
Unknown
Sunlit
N/A
Visualization observer readout
Local Sidereal Time
09:13:59
Azimuth
Unknown
Elevation
Unknown
Doppler factor
Unknown
Orbital elements
Apogee altitude
977.967 km
Perigee altitude
938.093 km
Semi-major axis
7,336.167 km
Eccentricity
0.00272
Inclination
66.8421°
RAAN
353.4079°
Arg. of periapsis
294.3448°
True anomaly
141.52088°
Mean anomaly
141.3268°
Eccentric anomaly
141.42389°
Mean motion
3.45414 °/min
Orbital period
104.22 mins
BSTAR
0.000071827

Documentation

Showing up to 5 results
|